When you browse on this site, cookies collect data to enhance your experience and personalize the content and advertising you see.
Visit our Privacy Policy to learn more. By continuing to use the site, you agree to this use of cookies and data.
  • In United Kingdom
  • List of Countries
  • For 7 days
  • Water Temperature
  • Satellite Maps
  • Weather Map
  • Weather Widgets
  • user-avatar
    Login

    Hourly Weather Pest County

    Today, 17 June, Monday

    Time Temperature Precipitation Wind Pressure Humidity
    00:00 +21°C° 1.1 mm 2 mps 742 mmHg 82%
    01:00 +21°C° 1.1 mm 2 mps 742 mmHg 83%
    02:00 +21°C° 0.4 mm 2 mps 742 mmHg 84%
    03:00 +20°C° 0.4 mm 2 mps 742 mmHg 85%
    04:00 +20°C° 0.4 mm 2 mps 741 mmHg 86%
    05:00 +20°C° 0.3 mm 2 mps 742 mmHg 84%
    06:00 +21°C° 0.3 mm 2 mps 742 mmHg 82%
    07:00 +23°C° 0.3 mm 2 mps 743 mmHg 80%
    08:00 +21°C° 0.4 mm 2 mps 743 mmHg 82%
    09:00 +21°C° 0.4 mm 3 mps 743 mmHg 84%
    10:00 +21°C° 0.4 mm 3 mps 743 mmHg 85%
    11:00 +21°C° 0.5 mm 3 mps 743 mmHg 82%
    12:00 +23°C° 0.5 mm 2 mps 743 mmHg 80%
    13:00 +24°C° 0.5 mm 2 mps 742 mmHg 77%
    14:00 +24°C° 1.9 mm 3 mps 742 mmHg 79%
    15:00 +22°C° 1.9 mm 3 mps 742 mmHg 81%
    16:00 +22°C° 1.9 mm 3 mps 742 mmHg 83%
    17:00 +21°C° 3.9 mm 3 mps 742 mmHg 86%
    18:00 +21°C° 3.9 mm 2 mps 741 mmHg 89%
    19:00 +20°C° 3.9 mm 2 mps 741 mmHg 91%
    20:00 +20°C° 1.8 mm 2 mps 742 mmHg 91%
    21:00 +20°C° 1.8 mm 3 mps 742 mmHg 91%
    22:00 +20°C° 1.8 mm 3 mps 742 mmHg 91%
    23:00 +19°C° 0.3 mm 3 mps 742 mmHg 90%

    Tomorrow, 18 June, Tuesday

    Time Temperature Precipitation Wind Pressure Humidity
    00:00 +19°C° 0.3 mm 3 mps 742 mmHg 89%
    01:00 +19°C° 0.3 mm 2 mps 742 mmHg 88%
    02:00 +18°C° 0.1 mm 2 mps 741 mmHg 88%
    03:00 +18°C° 0.1 mm 2 mps 741 mmHg 88%
    04:00 +18°C° 0.1 mm 2 mps 741 mmHg 88%
    05:00 +19°C° 0.1 mm 2 mps 742 mmHg 87%
    06:00 +20°C° 0.1 mm 3 mps 742 mmHg 86%
    07:00 +20°C° 0.1 mm 3 mps 742 mmHg 85%
    08:00 +21°C° 0 mm 3 mps 742 mmHg 84%
    09:00 +23°C° 0 mm 2 mps 742 mmHg 82%
    10:00 +24°C° 0 mm 2 mps 742 mmHg 81%
    11:00 +25°C° 0 mm 2 mps 742 mmHg 76%
    12:00 +26°C° 0 mm 2 mps 742 mmHg 71%
    13:00 +27°C° 0 mm 2 mps 741 mmHg 66%
    14:00 +28°C° 0.1 mm 2 mps 741 mmHg 66%
    15:00 +28°C° 0.1 mm 3 mps 741 mmHg 65%
    16:00 +28°C° 0.1 mm 3 mps 740 mmHg 64%
    17:00 +27°C° 0.3 mm 3 mps 740 mmHg 69%
    18:00 +26°C° 0.3 mm 2 mps 740 mmHg 74%
    19:00 +25°C° 0.3 mm 2 mps 740 mmHg 78%
    20:00 +24°C° 0.2 mm 2 mps 740 mmHg 80%
    21:00 +23°C° 0.2 mm 1 mps 740 mmHg 82%
    22:00 +23°C° 0.2 mm 1 mps 740 mmHg 83%
    23:00 +22°C° 0.2 mm 1 mps 740 mmHg 85%

    Day after tomorrow, 19 June, Wednesday

    Time Temperature Precipitation Wind Pressure Humidity
    00:00 +22°C° 0.2 mm 1 mps 740 mmHg 86%
    01:00 +21°C° 0.2 mm 1 mps 740 mmHg 87%
    02:00 +21°C° 0.2 mm 1 mps 740 mmHg 88%
    03:00 +21°C° 0.2 mm 1 mps 740 mmHg 88%
    04:00 +21°C° 0.2 mm 1 mps 740 mmHg 88%
    05:00 +22°C° 0 mm 1 mps 740 mmHg 85%
    06:00 +23°C° 0 mm 1 mps 740 mmHg 82%
    07:00 +24°C° 0 mm 1 mps 741 mmHg 79%
    08:00 +25°C° 0.9 mm 1 mps 741 mmHg 75%
    09:00 +27°C° 0.9 mm 1 mps 740 mmHg 70%
    10:00 +28°C° 0.9 mm 1 mps 740 mmHg 66%
    11:00 +29°C° 0.4 mm 1 mps 740 mmHg 62%
    12:00 +29°C° 0.4 mm 1 mps 740 mmHg 58%
    13:00 +30°C° 0.4 mm 1 mps 740 mmHg 53%
    14:00 +30°C° 0.1 mm 1 mps 740 mmHg 55%
    15:00 +30°C° 0.1 mm 2 mps 739 mmHg 56%
    16:00 +30°C° 0.1 mm 2 mps 739 mmHg 57%
    17:00 +29°C° 0.1 mm 2 mps 739 mmHg 61%
    18:00 +28°C° 0.1 mm 1 mps 739 mmHg 65%
    19:00 +27°C° 0.1 mm 1 mps 739 mmHg 69%
    20:00 +25°C° 2.1 mm 1 mps 739 mmHg 74%
    21:00 +24°C° 2.1 mm 1 mps 739 mmHg 78%
    22:00 +23°C° 2.1 mm 1 mps 739 mmHg 82%
    23:00 +23°C° 0.8 mm 1 mps 739 mmHg 82%

    20 June, Thursday

    Time Temperature Precipitation Wind Pressure Humidity
    00:00 +23°C° 0.8 mm 1 mps 739 mmHg 83%
    01:00 +23°C° 0.8 mm 1 mps 739 mmHg 83%
    02:00 +22°C° 0.9 mm 1 mps 739 mmHg 84%
    03:00 +22°C° 0.9 mm 1 mps 739 mmHg 85%
    04:00 +22°C° 0.9 mm 1 mps 739 mmHg 86%
    05:00 +22°C° 1 mm 1 mps 739 mmHg 87%
    06:00 +23°C° 1 mm 1 mps 740 mmHg 87%
    07:00 +23°C° 1 mm 1 mps 740 mmHg 87%
    08:00 +24°C° 0.5 mm 1 mps 740 mmHg 80%
    09:00 +26°C° 0.5 mm 1 mps 740 mmHg 73%
    10:00 +28°C° 0.5 mm 1 mps 740 mmHg 66%
    11:00 +28°C° 0.5 mm 2 mps 740 mmHg 63%
    12:00 +29°C° 0.5 mm 2 mps 740 mmHg 60%
    13:00 +30°C° 0.5 mm 3 mps 740 mmHg 57%
    14:00 +30°C° 0.3 mm 2 mps 740 mmHg 58%
    15:00 +30°C° 0.3 mm 2 mps 740 mmHg 58%
    16:00 +30°C° 0.3 mm 2 mps 740 mmHg 58%
    17:00 +29°C° 0.4 mm 2 mps 739 mmHg 63%
    18:00 +28°C° 0.4 mm 2 mps 739 mmHg 67%
    19:00 +26°C° 0.4 mm 2 mps 739 mmHg 72%
    20:00 +25°C° 0.2 mm 2 mps 739 mmHg 73%
    21:00 +25°C° 0.2 mm 2 mps 739 mmHg 75%
    22:00 +24°C° 0.2 mm 1 mps 740 mmHg 76%
    23:00 +23°C° 0.2 mm 1 mps 740 mmHg 77%

    21 June, Friday

    Time Temperature Precipitation Wind Pressure Humidity
    00:00 +23°C° 0.2 mm 1 mps 740 mmHg 78%
    01:00 +22°C° 0.2 mm 1 mps 740 mmHg 78%
    02:00 +22°C° 0 mm 1 mps 740 mmHg 80%
    03:00 +22°C° 0 mm 1 mps 740 mmHg 81%
    04:00 +21°C° 0 mm 1 mps 740 mmHg 83%
    05:00 +23°C° 0 mm 1 mps 740 mmHg 81%
    06:00 +24°C° 0 mm 1 mps 741 mmHg 79%
    07:00 +25°C° 0 mm 2 mps 741 mmHg 78%
    08:00 +26°C° 0.4 mm 2 mps 741 mmHg 72%
    09:00 +27°C° 0.4 mm 3 mps 741 mmHg 67%
    10:00 +29°C° 0.4 mm 3 mps 741 mmHg 61%
    11:00 +29°C° 0.3 mm 3 mps 741 mmHg 59%
    12:00 +30°C° 0.3 mm 3 mps 741 mmHg 57%
    13:00 +30°C° 0.3 mm 4 mps 740 mmHg 55%
    14:00 +30°C° 0.1 mm 3 mps 740 mmHg 56%
    15:00 +30°C° 0.1 mm 3 mps 740 mmHg 57%
    16:00 +30°C° 0.1 mm 3 mps 740 mmHg 58%
    17:00 +29°C° 0.3 mm 3 mps 739 mmHg 62%
    18:00 +28°C° 0.3 mm 2 mps 739 mmHg 67%
    19:00 +26°C° 0.3 mm 2 mps 739 mmHg 72%
    20:00 +25°C° 0 mm 2 mps 739 mmHg 73%
    21:00 +25°C° 0 mm 2 mps 739 mmHg 75%
    22:00 +24°C° 0 mm 1 mps 739 mmHg 76%
    23:00 +23°C° 0.1 mm 1 mps 739 mmHg 78%

    22 June, Saturday

    Time Temperature Precipitation Wind Pressure Humidity
    00:00 +23°C° 0.1 mm 1 mps 739 mmHg 79%
    01:00 +23°C° 0.1 mm 1 mps 739 mmHg 80%
    02:00 +22°C° 0.7 mm 1 mps 739 mmHg 83%
    03:00 +22°C° 0.7 mm 1 mps 739 mmHg 85%
    04:00 +21°C° 0.7 mm 1 mps 739 mmHg 88%
    05:00 +22°C° 0.3 mm 1 mps 739 mmHg 86%
    06:00 +23°C° 0.3 mm 2 mps 740 mmHg 83%
    07:00 +25°C° 0.3 mm 2 mps 740 mmHg 81%
    08:00 +26°C° 0.1 mm 2 mps 740 mmHg 74%
    09:00 +27°C° 0.1 mm 3 mps 740 mmHg 68%
    10:00 +28°C° 0.1 mm 4 mps 740 mmHg 62%
    11:00 +29°C° 0 mm 4 mps 740 mmHg 60%
    12:00 +29°C° 0 mm 4 mps 740 mmHg 57%
    13:00 +30°C° 0 mm 4 mps 740 mmHg 55%
    14:00 +30°C° 0.1 mm 4 mps 740 mmHg 57%
    15:00 +30°C° 0.1 mm 4 mps 740 mmHg 59%
    16:00 +29°C° 0.1 mm 3 mps 740 mmHg 61%
    17:00 +28°C° 0.1 mm 3 mps 740 mmHg 64%
    18:00 +27°C° 0.1 mm 3 mps 740 mmHg 67%
    19:00 +25°C° 0.1 mm 3 mps 740 mmHg 70%
    20:00 +24°C° 0 mm 3 mps 741 mmHg 72%
    21:00 +22°C° 0 mm 3 mps 741 mmHg 75%
    22:00 +21°C° 0 mm 4 mps 741 mmHg 77%
    23:00 +20°C° 0 mm 4 mps 741 mmHg 76%
    Show more